Theta_e
316 318 320 320 318 317 317 317 317 318 318 318 318 319 319 319 317 317 318 317 315 315 316 315 315 315 315 316 315 315 316 316 315 315 315 315 315 316 315 316 316 315 315 315 314 313 312 312 312 311 311 310 309 308 308 307 307 308 308 307 306 306 305 305 305 304 302 301 301 300 300 299 298 298 298 298 298 298 298 298 299 299 299 298 299 299
318 319 319 318 317 317 318 318 318 318 318 318 319 320 319 319 317 316 318 316 315 316 316 316 316 316 315 316 316 316 316 316 315 315 315 316 316 316 315 315 316 316 315 315 314 313 312 312 311 311 310 310 309 308 307 308 308 308 308 307 307 306 305 305 305 304 303 302 302 301 301 300 298 298 298 298 298 298 298 298 298 298 298 298 298 298
319 319 318 317 317 317 317 318 319 319 319 320 321 321 319 318 317 317 318 316 313 315 316 316 316 315 316 316 316 316 316 316 316 316 316 316 316 315 316 315 315 316 316 315 314 313 313 312 311 310 310 309 309 308 308 308 308 308 307 307 306 305 305 305 305 304 303 302 301 301 300 299 298 298 298 297 298 298 298 298 298 298 298 298 298 298
319 319 317 317 317 317 317 317 319 318 319 320 319 319 317 317 318 318 317 315 312 314 316 316 315 315 315 315 315 315 315 315 316 316 316 316 316 315 315 315 315 316 316 315 314 313 313 312 310 310 309 309 308 308 308 308 308 307 307 307 306 306 305 305 304 304 303 301 300 300 299 298 297 297 297 297 297 297 297 297 298 297 297 298 298 298
318 318 317 318 318 318 318 318 321 319 317 319 321 318 317 318 318 318 319 317 315 315 315 315 315 315 315 316 316 316 316 315 315 315 316 316 316 316 315 316 316 317 316 315 314 313 313 312 311 310 309 309 308 308 308 308 308 308 307 307 306 306 305 304 304 303 302 301 300 299 298 296 296 296 296 297 297 297 297 297 297 297 297 297 298 298
318 317 318 320 321 321 321 319 322 322 318 317 320 320 318 318 318 319 321 322 322 320 316 316 317 317 319 319 318 318 318 318 315 315 315 315 315 316 315 316 316 316 316 316 315 314 314 313 311 310 309 308 308 308 309 308 308 308 307 307 306 306 305 304 304 303 302 301 300 300 299 298 297 297 297 297 298 298 298 297 297 297 297 297 297 297
319 318 318 321 321 322 324 320 321 323 318 316 322 326 321 319 322 323 323 323 325 324 318 317 319 318 318 318 318 319 320 320 317 317 316 314 315 315 315 315 315 316 316 315 315 314 313 312 311 310 309 309 309 309 309 308 308 308 308 307 307 306 305 304 303 302 301 301 300 300 300 299 299 298 298 298 298 298 297 297 296 296 297 297 297 297
320 319 319 321 321 323 323 319 320 321 318 319 325 327 322 320 323 324 324 324 324 321 318 319 320 319 317 316 318 319 319 319 317 317 317 314 314 315 315 315 315 316 316 315 315 314 313 312 312 311 311 311 311 310 309 308 308 309 308 308 307 307 306 304 303 302 301 301 300 300 300 299 298 298 298 298 297 297 297 296 296 296 297 297 296 296
322 322 322 322 321 322 320 319 322 321 319 321 322 322 321 321 321 320 321 322 321 318 319 321 319 319 318 316 318 318 316 317 316 316 316 314 313 314 314 315 314 316 316 315 315 314 313 313 312 312 312 312 312 310 310 310 309 309 308 308 307 307 306 304 303 302 301 301 300 300 299 299 298 297 297 297 297 296 296 296 296 296 296 296 296 296
321 318 318 321 321 320 318 320 324 325 321 319 320 320 320 319 318 318 318 318 318 317 318 321 319 318 318 316 318 318 316 317 316 316 316 314 313 314 314 315 315 315 316 315 315 314 313 313 313 312 312 312 311 311 311 310 309 309 308 308 308 307 306 305 303 302 301 300 300 299 299 298 298 297 296 296 296 295 295 296 296 296 296 296 296 296
315 311 311 318 318 316 318 316 315 319 319 316 318 318 319 319 317 316 316 316 318 318 317 320 319 317 317 318 318 318 317 317 317 316 315 314 313 314 315 315 315 314 315 315 315 314 313 312 312 311 312 312 312 311 311 310 310 310 309 308 308 307 306 305 304 302 301 300 300 299 299 298 298 297 296 296 295 295 295 295 295 296 296 296 296 296
315 312 313 316 314 312 318 317 311 312 314 316 317 316 318 321 318 317 316 316 318 318 318 320 319 317 318 318 318 318 317 316 317 316 316 316 315 314 315 315 315 315 315 315 314 313 312 312 311 311 312 312 312 311 311 311 311 310 309 308 308 307 306 306 305 303 302 301 300 299 299 298 298 297 296 296 296 296 296 296 295 295 295 295 295 295
318 316 315 316 313 312 318 319 313 311 313 318 318 316 319 320 319 320 319 320 320 318 319 321 320 318 317 316 317 318 317 316 317 315 315 317 315 314 316 316 316 316 316 316 315 314 313 312 312 312 313 313 312 312 312 312 311 311 310 309 308 308 307 306 305 304 303 301 301 300 299 298 298 297 296 296 295 296 296 295 295 295 295 295 295 295
323 320 316 316 314 313 316 317 316 316 315 315 317 318 321 321 319 320 322 323 322 319 319 319 321 321 318 317 318 317 316 316 315 315 315 315 315 315 316 316 316 317 316 316 315 313 313 312 313 313 313 313 313 312 312 312 311 311 310 310 309 308 307 306 306 305 304 302 301 300 299 298 297 297 296 295 295 295 295 295 295 295 295 295 295 295
323 320 318 318 317 314 314 314 316 320 315 312 315 318 320 321 319 319 321 322 321 321 319 316 321 323 317 318 320 317 316 314 313 315 315 315 316 315 316 317 317 317 316 315 314 313 313 312 313 314 313 313 313 312 312 311 311 311 311 311 310 309 308 307 307 306 305 304 302 300 299 298 297 296 296 295 295 295 295 294 294 294 294 294 294 294
319 319 319 317 316 314 314 315 316 321 320 314 315 317 317 319 318 317 320 319 318 321 320 317 321 321 315 316 318 316 317 315 313 314 314 315 315 315 317 317 317 316 315 315 313 313 313 312 313 313 313 313 312 312 312 311 311 311 311 311 310 310 309 308 307 307 306 305 303 301 300 298 297 296 295 295 294 294 294 294 294 294 294 294 294 294
317 320 321 315 313 312 311 313 316 319 320 316 316 318 318 319 319 318 320 319 317 319 318 316 319 318 314 316 317 315 316 316 315 315 314 314 314 315 316 317 316 316 315 314 314 313 313 313 313 313 313 313 312 312 312 312 311 311 311 311 310 309 308 307 308 307 307 305 304 302 300 298 297 296 295 295 294 294 294 294 293 293 293 293 293 293
317 318 320 316 315 312 306 308 313 314 315 318 319 318 318 319 319 318 319 320 320 319 318 316 317 316 315 317 318 316 315 315 316 316 315 314 313 313 315 316 315 315 314 314 313 313 313 312 313 313 313 312 312 312 312 312 311 311 311 311 311 310 309 309 308 308 307 306 305 303 301 299 298 297 296 295 294 294 294 293 293 293 293 293 293 293
319 317 319 315 315 312 306 309 314 312 312 317 317 315 316 320 320 319 318 319 319 318 316 317 317 315 315 316 316 316 315 314 315 315 315 315 314 312 313 315 315 314 314 313 313 313 312 312 313 313 313 313 312 312 311 311 311 311 311 311 310 310 309 308 308 307 306 306 305 304 302 300 298 297 296 295 294 294 293 293 293 293 293 293 293 293
318 317 318 314 311 312 310 312 317 316 313 312 311 312 314 316 319 320 318 317 317 316 315 316 316 315 315 315 315 316 316 315 314 314 315 315 314 312 313 314 314 314 314 313 313 313 312 312 312 312 312 313 312 312 311 311 311 310 310 310 310 310 308 307 306 306 306 306 305 303 302 300 299 297 296 295 294 294 294 293 293 293 292 292 292 292
317 317 316 314 310 312 313 312 314 316 315 312 312 313 313 312 314 316 317 316 316 316 315 316 315 315 315 315 317 318 315 314 315 316 317 316 312 312 313 313 313 314 314 313 313 313 312 312 312 312 312 312 312 312 311 311 310 310 309 310 310 309 308 307 306 306 306 306 304 303 302 301 299 298 296 295 294 294 293 293 293 292 292 292 292 292
318 317 316 315 313 314 315 313 313 314 315 314 313 313 313 313 314 314 315 316 315 315 315 315 315 315 315 316 318 317 316 316 317 317 318 315 311 312 313 313 313 314 313 313 312 312 312 312 312 311 311 311 311 311 311 311 310 310 309 310 309 309 308 307 306 306 306 306 304 303 302 300 299 298 296 295 294 293 293 293 292 292 291 292 292 291
318 318 316 316 315 315 316 316 314 314 315 315 315 314 313 313 313 315 315 315 315 315 315 316 316 315 315 317 316 315 316 316 315 316 318 314 311 313 313 312 313 313 312 312 312 312 312 312 312 311 311 311 311 311 311 311 310 310 310 309 309 309 308 307 306 305 305 305 304 302 301 299 298 298 296 295 294 293 293 292 292 292 291 291 291 291
316 317 315 314 315 316 316 315 313 311 312 313 315 316 314 313 313 314 314 314 315 316 315 315 315 315 316 318 316 315 316 315 312 313 315 313 312 314 313 313 313 312 312 312 312 311 312 311 311 311 311 311 311 311 311 310 310 310 310 309 309 309 308 307 305 304 303 303 303 301 299 299 298 297 296 295 294 293 293 292 292 291 291 291 291 290
314 316 315 314 315 315 315 314 312 311 311 312 313 315 315 315 314 315 314 313 314 315 315 315 314 314 315 318 318 317 316 315 313 312 312 311 311 313 313 312 312 312 312 311 311 311 311 311 311 311 311 311 311 311 311 310 310 310 309 310 309 309 308 306 304 303 302 302 301 300 299 298 298 297 296 295 294 293 292 292 291 291 291 291 290 290
313 315 315 314 315 315 315 315 314 314 314 311 312 314 314 315 315 315 314 314 314 314 314 314 313 313 313 315 315 315 314 314 313 312 311 311 311 312 312 312 312 312 312 311 311 311 311 311 311 310 311 310 310 311 310 310 310 309 309 309 309 309 308 305 303 302 301 300 300 300 299 298 298 297 296 295 294 293 292 292 291 291 291 290 290 290
311 314 314 313 314 314 314 315 314 314 313 312 313 313 313 314 314 314 314 314 314 314 314 314 313 313 313 313 313 312 313 313 312 312 312 311 311 311 312 311 312 311 311 311 311 311 311 310 311 310 310 310 310 310 310 310 310 309 309 309 309 308 307 305 303 302 300 300 299 299 299 298 298 297 296 295 294 293 292 291 291 290 290 290 290 290
311 312 313 313 313 313 314 313 313 312 312 312 313 313 313 313 313 314 314 313 313 314 314 314 314 314 313 312 312 312 312 312 313 312 312 311 311 312 311 311 311 311 311 311 311 311 311 310 310 310 310 309 310 310 309 310 309 309 309 309 308 308 307 305 304 302 301 299 299 299 299 298 297 296 295 294 293 292 292 291 290 290 290 290 289 289
312 311 312 313 312 312 313 312 311 312 312 312 312 312 313 313 313 313 313 312 313 314 313 313 313 314 313 312 312 313 312 312 312 312 312 312 312 311 311 311 311 310 310 311 311 311 310 310 310 310 309 309 309 309 309 309 309 309 309 308 308 307 306 305 304 302 301 300 299 299 298 297 296 295 294 293 292 292 291 291 290 290 289 289 289 289
311 311 312 312 312 312 312 311 311 311 312 312 312 312 312 312 312 312 312 312 312 312 312 312 313 313 312 312 312 312 312 312 312 312 312 311 311 311 310 310 310 310 310 310 310 310 310 310 310 309 309 309 309 309 309 309 309 309 308 308 307 306 305 304 303 302 301 300 299 298 297 296 295 294 293 292 292 291 291 290 290 289 289 289 289 289
310 313 312 312 312 312 312 311 311 311 312 312 312 311 311 311 312 312 312 312 312 312 312 312 312 312 311 311 311 311 311 311 311 311 311 311 311 311 310 310 310 309 309 310 310 310 310 310 310 310 309 309 309 309 309 309 308 308 308 307 306 306 305 304 303 302 301 300 299 297 296 295 294 293 292 291 291 290 290 290 289 289 289 289 289 289
309 312 312 312 313 312 312 312 311 311 311 311 311 311 311 311 312 312 312 312 312 312 312 313 313 312 311 311 311 311 311 311 311 311 311 311 311 311 310 310 310 310 310 310 310 310 310 310 310 310 310 310 310 309 309 309 308 308 308 307 306 305 304 303 302 301 300 299 298 296 295 294 293 292 291 291 290 290 290 290 289 289 288 288 289 288
308 310 311 312 313 313 313 313 312 312 312 312 312 311 311 311 311 311 312 312 311 312 312 313 313 312 311 312 311 311 311 311 311 311 310 310 310 310 310 309 309 310 310 310 310 310 311 311 310 310 310 310 310 309 309 309 309 308 308 307 306 305 303 302 301 300 298 297 296 295 294 293 292 291 291 290 290 290 290 289 289 289 288 288 288 288
308 310 311 312 313 313 313 313 312 312 313 313 314 312 311 311 311 311 312 311 311 311 312 312 312 312 312 312 311 311 311 311 311 311 310 310 310 310 310 310 310 310 310 311 311 311 311 311 310 310 310 310 310 309 309 309 308 308 308 307 306 304 303 302 300 299 298 296 296 295 294 293 292 291 290 289 289 289 289 289 289 288 288 288 288 288
309 309 309 311 312 313 313 314 314 314 314 314 314 313 311 311 311 311 312 311 311 311 311 311 311 311 311 312 311 311 311 311 311 311 310 311 310 310 310 310 310 311 310 311 311 311 311 311 310 310 310 310 309 309 309 309 308 308 307 306 305 304 303 301 300 299 298 297 296 295 294 293 292 290 290 289 289 289 289 289 288 288 288 288 288 288
311 310 310 310 311 312 313 314 315 316 314 312 313 312 311 311 311 311 311 311 310 311 311 311 311 311 311 311 311 311 311 311 310 310 310 311 311 310 310 310 311 311 311 311 311 311 311 310 310 310 309 309 309 309 309 309 308 308 307 306 305 304 303 301 300 299 298 297 296 295 294 293 292 291 290 289 289 289 289 288 288 288 288 288 288 288
311 311 311 311 312 312 313 313 313 314 313 312 314 313 311 311 311 311 312 312 310 310 310 310 310 311 310 311 310 310 310 310 310 310 310 311 311 311 310 311 311 311 311 311 311 311 311 310 310 310 310 309 309 309 309 309 308 308 307 306 305 304 303 302 301 300 299 298 297 296 295 293 292 291 290 289 289 289 288 288 287 288 288 288 288 287
310 311 311 312 313 313 314 313 314 315 314 314 314 313 311 311 311 311 312 312 312 312 312 311 310 310 310 311 310 310 310 311 311 310 310 311 311 311 311 311 311 311 311 311 311 311 311 310 310 310 310 309 309 310 309 309 308 308 308 308 307 305 304 303 303 302 301 300 299 297 295 294 292 292 290 290 289 289 288 287 287 288 288 288 287 287
310 310 311 312 313 313 314 315 315 315 314 314 313 312 311 311 311 312 313 312 313 313 313 312 311 311 311 311 311 310 311 311 311 310 310 311 311 311 311 311 311 311 311 311 311 311 310 310 310 310 310 310 310 310 309 309 309 309 309 308 307 306 305 306 306 305 303 302 299 297 295 293 292 291 290 290 289 288 288 287 288 288 287 287 287 287
310 310 310 311 312 313 314 314 314 314 314 315 314 313 311 310 310 313 314 315 314 313 312 311 312 312 311 311 311 311 312 311 311 311 311 311 311 311 311 310 310 311 311 311 311 310 310 310 310 310 310 310 310 310 309 309 308 308 308 307 306 306 307 308 307 305 302 300 298 296 294 293 291 290 289 289 288 288 287 287 287 287 287 287 287 287
309 310 310 312 312 312 313 314 313 313 314 316 315 313 311 310 311 313 314 314 313 312 310 310 311 311 310 310 309 309 310 309 309 310 310 310 311 310 310 310 310 310 310 310 310 310 310 310 310 310 310 309 309 309 309 309 308 307 307 307 307 307 308 308 306 304 302 299 297 295 294 292 291 290 289 288 288 287 287 287 287 287 287 288 288 287
310 310 309 311 312 312 312 312 313 313 313 312 312 311 311 311 312 311 309 308 309 308 308 308 308 307 307 306 306 306 307 307 308 308 308 309 309 309 309 309 309 309 310 309 310 310 309 309 309 309 309 309 310 310 309 309 308 307 307 307 308 308 307 306 305 304 302 300 297 295 293 291 290 289 288 287 287 287 287 287 287 287 288 288 287 286
310 311 310 311 311 311 311 312 312 312 309 306 307 310 310 310 309 306 304 305 305 305 304 304 304 304 304 304 304 304 305 305 305 306 306 307 307 307 307 308 308 308 308 308 308 309 309 309 309 309 309 308 309 310 309 309 308 307 307 308 308 307 306 305 304 304 302 299 297 294 293 291 290 288 288 287 286 286 287 287 287 287 288 287 286 285
306 308 309 309 308 308 310 311 310 308 304 301 301 303 303 303 304 303 303 304 304 303 302 302 302 301 301 302 302 302 303 304 303 304 304 304 304 305 305 306 306 306 306 307 307 308 308 308 308 308 308 307 308 308 308 308 308 308 308 308 307 306 305 304 303 302 301 299 296 294 292 290 289 288 287 286 286 286 286 287 287 288 287 287 286 285
303 303 303 303 303 304 305 305 304 303 301 299 298 298 299 301 302 302 302 302 302 300 299 299 299 298 298 299 299 299 300 300 300 300 301 301 301 302 302 303 304 305 305 306 306 307 307 307 307 308 307 307 307 307 307 307 307 307 307 307 307 306 305 304 302 301 300 298 295 293 291 289 288 287 286 286 286 286 286 287 287 288 287 286 285 284
300 300 299 299 299 299 300 301 301 299 298 297 296 297 300 302 301 301 300 300 299 297 296 296 296 296 296 296 296 296 297 297 297 297 297 298 298 299 299 300 301 302 303 304 305 306 306 306 306 307 307 307 307 307 307 307 306 306 306 306 306 305 305 303 302 300 298 296 293 291 290 288 287 286 286 285 286 286 286 287 288 288 287 286 285 284
297 298 297 295 295 296 297 298 298 297 296 295 295 297 300 301 299 299 298 296 295 294 294 294 294 294 294 294 295 295 295 295 295 295 295 296 296 297 297 298 299 300 301 302 303 304 305 305 306 306 306 306 306 306 306 306 305 305 305 304 304 304 303 302 300 298 297 295 293 290 289 288 287 286 285 285 286 286 286 287 288 287 287 286 285 283
295 295 294 293 294 294 294 295 295 295 295 296 297 298 299 298 296 296 294 293 293 293 293 293 293 293 294 294 294 294 294 294 295 295 295 296 296 296 297 298 299 300 301 302 303 304 305 305 305 305 305 305 305 305 305 305 304 304 304 303 302 302 302 300 298 297 295 294 292 290 288 287 286 286 285 285 286 286 287 287 287 287 287 286 284 283
293 293 293 293 293 293 293 294 294 295 295 295 295 296 295 294 293 293 293 292 293 293 293 294 294 294 294 295 295 295 295 295 296 296 296 297 297 298 298 299 300 301 301 302 303 304 304 304 304 304 304 304 304 304 304 304 303 303 303 302 302 301 301 299 297 294 293 292 290 289 288 286 286 285 285 285 286 286 287 288 288 287 286 284 282 282
293 293 293 294 293 293 294 294 293 292 292 292 292 293 292 292 292 292 292 293 293 294 294 294 294 294 294 295 296 296 296 296 297 297 297 297 298 298 298 298 299 299 300 300 301 301 301 302 302 302 302 302 302 302 302 302 302 302 302 302 301 301 300 298 296 293 291 289 289 288 287 286 285 285 285 286 286 287 286 286 285 284 283 282 281 281
293 293 293 293 293 293 293 292 292 291 291 291 292 292 292 292 292 292 292 292 292 292 292 292 291 291 291 292 293 293 294 294 294 294 295 295 296 296 297 297 298 298 298 299 299 299 300 300 300 301 301 301 301 301 301 301 301 302 302 301 301 300 299 297 295 293 290 289 288 287 287 285 284 284 285 286 286 287 287 285 282 280 279 279 279 279
Wind_Speed
11 5 4 7 11 11 10 12 14 14 13 12 11 9 8 7 8 13 10 4 9 6 8 13 12 13 16 13 12 21 24 20 20 20 22 26 29 33 34 34 34 35 37 35 33 32 31 32 33 35 36 37 37 37 38 38 37 37 37 38 39 39 40 40 42 42 42 42 41 39 38 38 37 35 34 33 31 30 29 28 26 23 21 19 18 16
7 6 9 14 16 12 9 11 12 12 12 12 9 8 7 7 10 14 8 3 7 5 6 10 10 13 16 14 12 17 18 15 18 18 22 27 31 35 34 34 35 33 32 30 30 30 27 29 32 34 36 37 38 38 38 37 36 36 37 38 39 39 40 41 42 43 43 43 42 40 38 38 37 36 35 34 32 31 30 29 27 24 22 20 18 17
5 9 13 16 13 10 11 10 8 9 10 9 6 5 7 7 10 11 5 3 4 3 5 7 9 12 14 14 13 15 16 17 24 26 28 32 32 35 35 33 32 27 26 27 28 28 27 28 31 33 36 37 38 38 37 36 35 36 38 38 39 39 40 41 41 43 43 43 41 39 38 37 37 36 36 34 33 32 32 30 27 25 23 21 19 18
7 9 14 17 14 12 13 10 7 8 8 7 6 5 8 8 8 7 3 3 4 4 5 7 8 8 11 14 14 20 25 25 30 33 36 38 35 37 40 35 29 23 23 27 27 27 27 28 30 33 35 36 37 37 36 36 36 37 38 38 39 39 39 40 41 43 43 42 40 39 38 37 37 37 36 36 35 34 33 31 28 26 24 22 21 19
13 7 8 10 11 11 12 9 7 6 8 8 7 7 10 11 11 9 5 2 4 6 3 4 8 8 9 14 14 16 21 22 25 28 31 37 39 39 40 37 31 25 24 28 29 27 27 29 30 32 33 34 35 36 36 37 37 37 37 37 37 38 39 40 41 43 43 43 42 41 40 39 39 38 38 38 38 36 35 32 29 27 26 24 22 21
14 10 9 6 5 7 8 7 7 6 8 8 7 11 15 14 12 12 8 4 3 5 2 1 7 7 7 12 13 7 7 11 15 17 20 31 37 36 35 35 33 27 26 28 28 27 27 28 29 30 32 33 34 34 34 35 36 36 36 35 35 36 38 39 41 43 44 45 45 45 45 44 44 43 43 42 39 37 35 33 31 29 27 25 23 22
4 6 8 8 7 7 6 6 7 8 8 8 4 8 12 12 10 9 8 4 3 4 2 3 2 7 6 8 10 6 5 8 10 10 15 25 31 33 33 33 30 24 25 27 27 26 27 27 28 29 31 31 30 30 32 34 34 34 33 33 33 34 36 39 41 43 45 46 47 47 47 47 46 46 44 42 39 37 35 33 32 31 29 27 25 23
3 5 5 6 8 6 7 8 8 9 7 6 2 1 2 3 5 5 4 5 4 4 3 4 3 7 12 8 9 9 8 8 10 10 12 19 27 31 33 34 29 22 23 27 27 27 27 26 26 27 27 26 27 28 31 32 32 31 31 31 31 33 35 38 41 43 45 46 47 47 47 47 46 45 43 40 38 37 35 34 34 32 30 28 26 24
3 6 7 8 7 5 7 7 5 9 7 4 1 2 3 2 0 1 1 5 3 5 4 5 7 5 13 7 8 10 11 11 13 13 13 16 23 28 31 34 31 23 22 25 27 27 26 24 24 25 24 23 25 27 28 28 28 29 29 30 31 33 35 37 40 43 44 46 47 47 47 47 46 44 42 39 39 39 38 37 36 34 31 29 27 25
0 4 4 6 7 6 6 1 2 3 5 3 2 4 5 3 1 2 2 2 2 6 7 7 9 5 13 10 6 7 10 11 12 12 13 16 23 26 28 31 30 25 24 24 25 24 23 22 22 23 23 23 24 25 25 25 26 28 29 31 32 32 34 37 39 42 44 45 47 47 47 47 45 44 42 41 40 41 40 38 37 34 32 30 28 26
2 4 2 3 5 4 4 5 4 2 1 2 2 2 2 1 1 1 2 2 1 10 8 10 14 9 10 8 6 8 9 11 11 9 10 13 19 24 23 25 28 28 27 25 23 23 22 22 22 23 25 24 24 23 24 25 26 28 30 31 31 32 34 36 38 41 43 45 46 47 47 46 46 45 44 44 43 43 42 39 37 35 33 31 29 27
3 2 0 2 3 5 6 3 2 3 1 2 3 2 1 3 2 3 1 3 2 11 5 12 17 13 11 6 3 7 10 13 12 10 12 11 14 21 23 23 26 29 28 25 23 22 23 24 24 26 27 25 25 25 25 26 26 28 30 31 32 33 34 34 36 39 42 44 45 46 46 46 46 46 46 46 46 45 43 40 38 36 34 32 30 29
5 8 6 1 2 7 5 2 2 3 0 3 4 4 1 3 2 1 2 2 5 10 4 10 14 11 15 10 2 5 7 11 11 9 13 13 14 21 23 22 25 27 27 25 24 24 24 25 27 29 29 28 28 27 27 27 27 28 29 30 32 32 33 33 34 37 40 43 44 45 46 45 46 46 47 47 46 45 43 41 39 37 36 34 32 30
3 6 7 4 2 9 10 5 4 2 4 8 6 6 5 3 3 4 4 3 7 9 6 6 10 6 10 7 9 13 10 11 13 15 17 16 18 23 24 23 24 25 26 25 25 24 24 26 28 30 30 30 30 28 28 28 28 28 28 30 31 32 33 34 33 35 38 41 43 44 45 45 46 47 47 47 46 45 43 41 40 38 37 35 32 30
4 8 7 8 3 12 15 13 11 4 5 9 6 5 6 5 3 4 5 7 6 6 5 2 5 4 4 2 12 17 16 15 18 22 23 17 18 20 20 21 22 24 25 24 24 24 23 25 28 30 31 31 30 29 29 29 28 28 28 29 31 32 33 33 33 33 35 38 41 43 45 45 46 47 47 47 46 45 44 42 40 39 37 35 32 30
6 10 8 9 4 13 14 12 11 5 1 5 4 3 6 5 5 5 7 8 3 4 5 3 4 6 4 6 10 11 13 14 15 21 21 17 19 19 17 20 21 22 24 23 23 22 23 26 29 30 31 31 31 30 30 29 29 27 27 29 32 32 33 33 32 32 33 35 39 42 44 46 46 47 47 47 47 46 44 43 41 39 37 35 32 30
5 6 4 5 2 5 5 4 5 4 2 2 4 4 5 2 4 5 7 6 2 5 9 6 7 8 7 11 12 11 12 11 10 13 13 16 22 20 18 21 22 23 24 23 22 22 24 28 30 31 31 32 32 31 30 30 29 27 26 30 32 33 35 34 33 33 33 35 38 41 44 46 46 47 48 48 47 47 45 43 42 40 38 35 33 31
7 6 2 3 1 1 3 6 3 1 2 5 3 4 1 3 1 2 2 3 3 7 8 8 12 11 9 10 4 7 12 12 11 12 13 17 20 17 18 23 25 25 25 23 22 23 25 29 30 31 32 33 33 32 30 29 29 28 27 30 32 34 36 35 34 34 34 36 37 39 43 45 46 47 48 48 48 47 46 45 43 41 39 36 33 32
5 5 3 1 1 1 4 3 2 3 1 5 2 2 2 1 1 2 3 2 5 7 7 11 15 13 12 11 6 2 11 13 14 16 15 15 13 12 19 25 26 25 25 24 25 25 27 29 31 31 32 36 36 34 31 29 30 30 28 30 34 35 36 36 36 36 36 37 37 39 42 44 45 47 48 48 48 48 47 46 44 42 39 37 34 33
3 4 4 1 2 1 2 1 4 3 2 2 2 3 1 3 3 4 4 3 5 7 8 10 13 13 10 8 8 7 11 13 14 13 11 10 11 16 22 25 26 25 26 27 26 26 27 28 31 31 33 37 40 37 33 31 31 31 29 30 34 37 38 39 39 38 38 39 39 40 42 44 45 46 47 48 49 48 48 46 44 42 40 37 35 33
1 3 6 1 2 1 2 4 8 7 6 4 2 3 3 2 1 1 3 4 5 7 7 7 10 14 6 2 5 8 11 12 11 9 8 8 13 21 25 27 28 27 27 26 24 24 26 27 29 29 32 38 41 38 35 33 32 31 30 29 33 38 40 41 41 40 40 40 41 42 43 44 46 46 48 48 48 48 47 46 44 42 39 37 35 33
3 4 7 3 2 6 8 7 10 13 10 8 8 9 9 7 4 3 7 7 5 5 6 7 10 15 6 5 1 6 10 10 9 9 9 9 16 23 24 25 26 26 25 24 23 24 25 26 26 26 31 38 42 41 38 36 34 32 31 29 32 39 42 42 42 42 41 41 43 43 44 45 46 47 48 49 48 48 47 46 44 42 40 38 35 33
4 2 5 7 7 10 11 6 7 10 8 5 6 8 8 8 7 8 9 7 4 4 6 6 10 16 7 6 5 1 7 9 10 11 8 11 21 24 22 24 25 24 24 24 25 26 25 25 26 27 31 37 41 43 42 39 35 32 31 31 33 38 42 44 44 42 42 43 44 45 45 46 47 47 48 49 48 47 47 45 43 41 40 37 35 32
2 3 4 7 6 6 7 3 2 1 0 3 5 5 6 7 8 9 7 5 5 5 6 8 12 14 7 3 1 4 6 8 11 14 12 12 19 22 21 24 25 25 26 25 26 27 27 26 28 30 32 34 37 42 43 40 34 31 33 35 36 38 41 45 45 44 45 45 44 46 47 47 48 48 48 49 48 47 46 45 43 41 39 37 34 31
2 2 4 6 6 4 5 5 3 3 2 2 5 5 6 7 8 8 5 4 7 9 11 12 12 11 7 2 6 7 7 7 8 13 16 15 17 20 22 24 26 27 27 27 27 29 29 30 32 34 34 33 35 40 42 39 33 32 34 38 38 38 40 44 45 45 46 46 45 46 47 48 48 48 49 49 49 47 45 44 43 41 38 36 34 31
3 1 3 6 8 8 8 7 4 1 0 1 3 6 8 9 10 9 6 7 9 11 14 15 12 12 12 10 11 12 12 11 11 13 16 16 17 20 23 25 27 28 28 29 30 31 32 34 35 35 34 33 34 39 41 37 33 33 35 38 40 39 40 42 44 45 46 46 46 47 48 49 49 49 49 49 49 47 45 44 43 41 39 37 34 31
1 2 3 5 7 7 7 7 8 7 6 6 7 9 10 9 10 9 8 9 10 11 14 14 14 16 18 19 22 22 21 19 17 16 15 16 18 22 24 26 28 30 30 31 31 32 33 35 37 36 34 33 33 36 39 37 36 37 37 39 41 40 40 41 43 45 46 46 47 47 48 49 49 49 49 49 49 47 45 44 43 42 39 36 33 31
1 3 6 8 11 11 9 12 15 15 15 15 16 16 14 12 11 11 11 13 13 13 14 14 16 19 19 20 25 27 25 22 18 16 17 20 23 23 24 26 29 29 29 29 29 31 33 35 36 36 34 33 32 34 36 38 39 40 40 41 41 41 41 41 41 44 46 46 47 47 48 49 49 49 50 49 48 47 45 44 43 41 38 35 32 30
2 6 11 12 16 18 16 18 21 20 20 19 18 19 19 19 18 16 18 20 18 16 15 15 19 24 21 20 22 24 23 21 19 21 25 28 30 27 23 23 25 24 22 24 27 29 32 35 36 36 36 34 34 35 37 39 41 41 42 42 42 42 42 40 41 43 45 46 47 47 48 48 49 50 50 49 48 47 45 44 43 40 36 34 31 29
4 6 12 15 18 19 20 22 24 24 23 21 21 21 21 23 23 23 24 25 23 23 23 24 28 28 23 21 22 25 27 27 29 33 36 36 37 35 28 23 25 23 18 21 28 31 32 34 35 37 38 36 36 37 38 40 41 42 43 43 43 43 41 40 41 42 44 46 46 47 48 48 49 50 49 49 48 47 45 44 42 39 36 33 31 28
7 7 11 13 12 15 20 22 23 23 22 23 24 22 21 23 26 26 25 22 21 23 26 27 26 23 20 22 24 27 31 33 31 32 36 38 40 37 30 26 27 26 22 25 31 33 33 34 35 36 37 36 36 36 38 40 41 42 42 42 43 42 41 40 40 42 43 44 45 46 47 48 49 49 49 49 47 46 45 44 42 38 36 33 30 28
8 7 7 8 8 10 16 20 23 23 22 23 23 22 23 25 25 23 22 21 20 22 23 22 18 15 17 21 21 21 26 28 26 26 31 37 39 35 27 24 26 29 32 33 32 31 33 34 34 35 35 34 34 34 35 37 38 39 40 40 40 39 39 39 40 41 42 42 43 45 47 48 49 49 49 48 47 46 45 43 41 38 35 33 30 28
7 6 5 7 8 9 13 18 20 18 15 14 17 24 30 29 25 22 20 23 24 22 18 16 15 17 19 18 17 21 25 24 23 26 28 31 35 34 27 24 28 34 40 38 32 30 31 32 32 33 33 33 32 32 32 32 34 35 34 35 36 36 37 38 38 39 40 41 42 44 45 47 48 48 48 47 46 45 44 43 40 38 35 32 30 28
9 9 8 7 6 8 13 15 13 11 10 10 14 23 29 28 26 25 25 28 29 24 18 18 19 21 19 17 18 23 25 27 33 36 30 26 30 32 30 29 33 38 40 37 32 31 31 31 32 33 33 33 31 29 28 28 29 30 29 31 33 34 35 35 36 37 38 39 41 42 44 46 46 47 47 46 45 45 43 42 39 37 34 31 30 28
9 10 8 6 5 7 9 10 10 10 10 9 10 15 19 23 27 29 28 28 28 26 25 25 25 23 21 20 22 24 28 39 46 39 30 31 35 35 33 36 40 41 39 36 34 35 36 35 35 34 33 31 28 26 25 25 26 27 28 30 31 32 32 33 34 35 36 37 40 42 44 46 47 47 47 46 45 44 43 41 39 37 34 32 30 28
12 9 6 6 6 5 5 8 11 9 2 3 7 9 12 17 20 22 24 26 28 28 27 26 25 23 22 22 25 32 38 42 37 30 33 41 43 39 36 37 41 42 40 38 38 39 39 37 35 33 30 28 26 24 24 23 23 24 26 27 28 30 31 32 33 34 35 37 40 42 44 46 47 47 47 46 45 44 44 42 40 37 34 32 30 28
16 12 7 7 7 7 8 10 12 12 7 5 7 9 12 15 16 18 20 21 23 23 22 22 22 23 24 23 26 35 38 28 17 20 38 51 49 43 38 35 38 43 43 43 44 41 37 34 30 28 28 26 25 23 22 22 22 22 23 25 27 29 30 32 33 34 35 37 39 41 44 46 47 47 46 46 45 45 44 43 40 37 35 32 30 26
17 15 12 10 7 9 11 9 7 11 11 10 11 13 17 20 22 22 20 16 12 11 13 18 22 25 25 22 21 24 23 16 9 14 36 52 50 44 39 36 39 43 43 45 46 40 32 29 28 26 25 25 24 22 22 22 21 21 23 25 26 28 30 31 32 33 34 37 39 41 43 45 46 46 46 46 45 45 45 43 40 38 34 31 28 24
20 16 15 11 6 8 11 8 7 10 8 9 14 16 20 25 22 17 17 13 8 9 13 18 22 22 18 15 16 14 12 11 8 13 34 49 47 41 38 37 38 40 39 40 40 32 26 27 28 26 25 24 24 23 23 23 22 22 24 25 27 29 29 29 29 30 32 35 37 40 43 44 45 45 44 44 45 46 45 43 40 37 33 30 26 24
17 12 12 10 7 10 13 8 8 9 5 8 13 14 20 24 16 10 13 9 8 15 22 23 21 19 17 18 17 12 9 10 11 18 35 43 39 36 35 34 35 34 32 33 32 26 24 25 27 27 26 26 25 24 24 24 23 24 25 25 27 28 27 26 27 29 32 35 37 40 42 43 44 43 43 43 45 45 44 42 39 36 32 28 25 24
10 9 9 9 9 13 14 9 8 9 5 7 10 11 14 13 6 8 14 9 2 11 16 14 14 15 16 16 13 7 8 14 18 25 34 37 36 37 37 34 31 27 25 27 28 26 25 24 25 28 28 25 23 23 24 24 24 25 25 26 27 27 26 26 27 30 33 36 39 40 42 43 43 42 42 43 45 45 43 41 37 33 29 27 25 25
5 4 5 7 8 10 11 8 9 9 2 1 8 11 9 6 5 6 9 16 17 12 16 17 13 16 21 19 16 16 19 23 23 23 26 27 30 33 34 32 29 27 27 28 27 27 27 24 25 29 30 25 21 21 24 25 24 24 24 25 26 27 27 27 29 31 34 37 40 41 42 42 42 42 43 45 47 46 44 40 36 32 29 27 26 26
4 3 4 6 6 8 10 7 7 5 5 12 8 5 2 4 5 7 12 18 22 23 25 25 22 25 28 26 26 28 28 29 30 31 32 31 30 30 29 27 25 24 25 24 24 26 27 25 25 28 30 28 25 23 24 25 24 24 25 25 25 25 28 31 32 34 36 39 41 43 43 43 43 44 46 47 47 46 43 40 35 32 30 29 27 26
5 3 4 3 1 3 6 4 2 2 4 14 12 5 7 13 13 14 13 11 17 23 24 23 25 28 28 27 30 34 32 30 33 35 33 33 33 34 33 32 30 28 26 25 25 26 26 25 25 26 28 30 29 28 26 26 27 27 29 29 27 27 30 33 35 37 38 41 43 44 44 44 45 46 47 48 48 46 43 39 35 32 30 29 28 27
5 3 3 5 4 3 4 7 6 3 8 14 14 13 19 20 15 16 15 12 14 19 22 22 27 32 33 31 33 35 34 34 37 37 36 36 36 36 36 35 34 32 30 30 28 27 27 27 26 26 28 30 30 30 29 29 29 30 32 33 32 31 32 35 38 40 41 44 45 45 45 45 46 47 49 49 49 47 44 40 36 33 31 30 29 27
8 5 2 3 6 7 7 9 9 9 16 25 30 27 22 16 15 18 18 17 18 23 26 25 28 34 37 36 35 35 37 40 41 42 42 42 41 41 40 39 39 37 35 33 31 30 29 29 28 28 29 30 31 31 31 30 31 32 35 37 37 36 35 37 40 42 44 45 46 46 46 47 48 50 51 50 49 46 42 39 36 34 33 31 29 27
7 7 6 7 10 10 8 7 10 15 21 30 35 27 15 13 21 25 23 25 29 32 33 33 33 35 36 35 33 34 38 41 42 43 44 43 43 43 43 43 43 41 39 36 34 33 32 31 30 30 30 30 31 31 32 33 34 35 38 39 40 39 37 38 41 44 46 47 48 48 48 49 51 53 54 52 49 45 41 38 36 35 34 32 30 28
10 13 12 10 10 11 11 12 18 24 26 26 24 18 16 23 29 30 29 32 34 34 35 36 36 34 33 32 31 31 33 36 37 39 40 41 41 42 42 43 43 42 41 38 35 33 32 31 30 29 29 29 29 30 31 33 35 37 39 40 41 41 39 39 42 45 47 48 49 49 50 51 54 56 56 54 50 46 42 40 38 36 34 31 29 27
14 15 13 11 12 13 14 12 13 16 19 20 19 19 24 31 34 34 34 34 33 33 35 35 33 31 29 30 31 31 31 33 33 34 35 36 37 39 39 40 41 41 40 39 35 32 32 32 32 31 31 32 31 31 33 34 34 36 39 41 43 43 41 40 42 45 47 49 50 50 51 53 56 58 57 55 50 45 41 40 38 36 33 29 26 24
11 11 10 9 10 11 10 11 13 13 13 19 27 30 31 33 34 34 33 31 30 30 30 30 30 29 27 27 28 28 29 30 31 31 32 33 34 37 39 40 41 42 41 40 39 37 37 38 38 37 38 38 37 37 37 37 37 37 38 40 43 43 42 43 44 46 49 50 51 52 53 56 58 59 57 55 51 46 42 38 34 32 30 28 26 24
9 9 9 9 10 13 15 19 23 19 15 20 32 39 38 34 29 25 25 27 27 27 28 30 33 35 34 31 29 29 30 33 34 34 35 35 36 37 38 40 40 41 42 42 41 40 40 40 40 40 41 42 41 41 41 41 40 39 40 41 42 43 44 44 46 49 51 52 54 55 56 59 61 60 57 53 50 47 45 40 35 31 28 26 24 22
Wind_Direction
183 186 204 219 236 229 216 216 225 237 245 257 265 267 266 273 271 268 277 210 185 200 217 223 233 244 254 253 248 258 261 256 253 251 246 246 250 253 255 257 255 252 255 256 250 246 243 241 241 240 239 236 232 230 229 230 232 235 238 238 237 236 235 234 233 233 231 231 231 231 233 233 232 232 233 234 235 236 238 240 241 240 241 243 247 253
187 209 219 225 238 242 237 236 237 242 248 253 257 267 271 266 268 272 278 205 186 204 229 235 245 250 256 260 257 256 257 253 253 255 254 253 255 258 260 260 259 256 252 249 244 241 239 237 236 235 235 234 231 228 227 231 234 236 239 239 239 237 236 236 236 235 234 234 235 236 237 236 234 234 235 235 236 237 238 239 240 239 240 242 247 253
214 230 232 236 247 255 256 255 257 262 261 264 267 276 274 268 276 279 271 186 179 197 237 250 255 258 263 264 261 255 251 247 248 251 255 256 257 260 262 261 260 255 242 236 235 232 234 235 233 231 232 233 232 230 230 234 235 235 237 238 238 237 237 237 237 237 236 236 237 238 239 238 235 234 235 235 236 237 237 238 239 238 239 242 246 252
229 228 231 241 249 252 255 249 244 268 266 251 250 262 266 260 267 277 249 197 207 212 244 273 268 261 268 268 262 253 251 251 250 250 254 256 257 259 262 261 258 249 234 227 224 225 230 232 230 229 230 230 229 229 230 232 233 234 236 237 238 238 238 238 238 238 237 236 236 236 237 236 234 234 233 233 233 235 236 238 238 237 238 241 245 251
241 231 212 230 238 236 246 243 227 250 259 241 220 229 253 253 248 255 250 200 222 237 249 306 289 264 244 252 259 254 248 248 246 244 249 254 256 258 260 261 256 246 235 226 219 222 229 231 230 229 228 228 228 229 230 231 232 233 235 237 238 238 239 238 238 238 236 234 233 232 230 229 229 229 230 231 232 234 236 238 237 236 238 241 245 249
246 234 205 204 218 214 226 239 212 210 257 261 212 213 239 251 254 258 274 320 307 268 220 138 283 269 207 226 251 254 226 233 237 232 238 247 253 256 257 257 254 245 235 230 226 226 232 233 230 228 226 226 227 228 229 230 232 233 235 237 238 239 239 238 238 237 235 234 233 232 230 229 229 229 230 233 236 237 238 238 236 235 237 241 244 248
237 206 196 200 216 215 221 246 216 198 254 273 227 216 238 251 260 262 272 284 260 265 240 138 273 285 253 231 245 240 201 223 230 221 230 238 245 251 251 254 258 246 229 227 227 228 232 232 229 227 226 225 225 225 226 228 230 232 234 237 239 240 240 239 238 237 235 234 234 234 235 235 235 235 236 237 238 239 239 237 235 235 237 240 243 246
127 144 167 197 213 216 223 244 222 194 231 266 262 256 240 246 259 257 255 239 236 289 275 161 143 280 277 248 218 220 214 227 234 228 235 236 238 243 246 253 260 248 227 222 221 224 228 230 232 231 227 223 222 222 223 225 227 229 232 235 238 240 240 239 238 237 236 236 236 236 236 237 238 239 240 239 239 237 235 233 233 235 237 239 241 245
107 177 200 197 192 213 222 236 214 184 209 251 37 58 88 92 311 101 228 245 281 316 266 185 152 242 276 255 185 204 213 224 235 232 236 239 237 236 237 247 254 245 232 227 224 226 229 232 237 235 226 221 220 219 221 224 226 228 230 233 236 238 240 239 238 237 237 238 238 238 237 237 237 237 238 237 236 235 233 232 234 235 237 238 240 243
121 180 208 184 180 220 216 60 24 179 209 219 120 72 77 78 46 89 219 251 337 285 244 188 163 206 274 267 184 193 211 216 230 232 234 238 239 236 232 237 243 239 235 232 228 230 233 236 239 233 222 220 219 218 221 223 225 227 228 231 233 236 238 239 239 238 238 238 237 238 238 237 236 235 234 233 232 233 233 233 234 236 236 237 239 242
182 102 36 200 192 193 128 76 28 48 150 166 120 66 53 310 22 76 237 108 24 269 241 188 184 192 267 273 166 183 203 200 211 222 229 237 240 239 234 230 231 232 232 231 227 226 228 232 234 227 220 217 218 217 219 221 223 226 227 229 232 234 236 238 240 239 239 238 238 239 239 238 237 235 233 233 232 232 234 234 235 235 236 238 239 242
219 149 47 233 182 125 102 87 32 45 73 116 114 112 345 300 17 35 292 104 212 265 236 178 187 192 234 262 136 192 200 192 202 208 214 224 232 235 234 228 226 227 228 228 224 219 219 223 222 219 218 216 215 216 216 219 221 224 226 228 230 232 234 237 240 241 240 239 239 240 240 239 238 236 235 235 235 235 236 236 235 234 235 237 239 242
243 229 201 173 185 165 146 97 30 6 351 151 140 137 120 284 304 324 251 147 221 257 244 178 181 199 236 248 226 234 213 197 211 214 207 206 214 226 229 228 225 222 223 224 222 219 219 220 215 212 212 212 214 216 216 219 221 223 226 227 229 230 232 235 238 242 242 241 241 241 240 239 238 236 237 237 237 237 237 237 235 235 235 237 239 242
265 262 183 155 259 186 169 171 214 257 189 180 163 149 167 208 245 249 240 241 240 257 275 188 175 213 264 250 208 220 223 204 206 217 216 205 204 217 224 224 220 217 219 223 222 222 223 222 216 212 211 212 215 218 219 220 222 224 226 228 229 230 231 233 237 241 244 244 243 242 241 240 238 237 237 237 237 238 237 237 236 236 237 238 240 243
244 286 181 164 203 177 180 206 210 168 162 198 178 160 195 194 206 236 231 245 259 279 288 187 165 219 275 212 194 206 220 210 198 210 219 214 212 221 222 215 211 213 218 221 223 224 226 225 221 217 215 216 219 221 222 223 223 225 229 231 231 230 230 232 236 241 245 247 244 242 241 240 239 238 237 237 237 238 237 236 236 236 237 238 240 242
229 272 191 161 151 162 182 220 204 131 120 217 147 157 234 205 194 244 256 252 286 324 276 219 212 239 258 264 228 212 222 217 203 208 212 213 219 223 212 201 205 214 218 220 224 226 227 227 224 221 220 220 222 224 224 225 225 228 234 236 234 232 232 233 236 240 246 248 246 243 241 240 238 237 237 236 236 236 237 236 236 236 236 238 239 242
226 278 173 139 39 151 176 256 195 160 209 188 133 193 234 165 166 227 274 285 307 284 273 258 253 271 301 282 247 213 215 215 207 211 207 211 219 216 205 202 210 218 220 222 228 232 232 228 225 224 224 225 225 226 228 229 230 235 242 242 237 234 231 231 235 239 243 245 245 244 242 239 238 237 237 236 236 236 236 235 235 235 236 236 238 241
227 265 203 146 326 289 343 332 298 276 126 132 173 223 245 29 86 172 269 309 272 257 273 276 270 278 287 280 258 182 206 210 204 209 209 213 216 211 206 211 220 225 225 228 232 236 236 232 229 229 231 232 231 231 234 235 235 238 244 246 242 237 235 234 235 238 240 243 244 244 242 240 239 238 237 237 236 236 235 235 235 235 235 235 237 240
220 246 264 123 326 351 14 341 299 314 138 143 197 261 101 125 221 164 176 227 247 251 269 277 278 276 254 261 299 217 203 203 203 209 210 210 210 207 213 220 226 227 229 232 235 238 239 235 233 234 238 239 235 234 235 237 237 238 243 247 245 242 240 237 235 236 238 241 243 244 243 241 240 239 238 236 236 235 235 235 235 235 235 235 236 238
200 222 251 328 331 349 22 244 191 240 254 110 357 334 116 169 182 179 188 195 220 240 262 275 281 277 252 247 263 224 190 195 204 209 211 208 208 210 216 223 226 226 229 233 238 242 243 241 238 240 248 246 239 236 236 236 238 239 244 250 250 246 241 237 234 235 238 240 241 242 241 240 239 239 238 236 235 235 235 235 235 235 234 234 235 238
173 225 233 306 345 256 220 196 180 194 204 181 232 250 215 198 145 208 241 219 212 227 244 254 267 270 264 166 217 196 179 196 199 198 211 214 218 219 219 223 226 226 229 233 240 247 248 247 243 246 255 252 241 236 236 238 241 242 244 254 258 250 242 238 235 235 238 240 240 240 240 239 239 238 237 236 235 235 234 234 234 234 233 234 235 237
179 215 217 203 235 238 243 218 194 207 209 193 203 213 213 202 179 238 247 230 218 226 233 237 257 263 266 65 71 183 178 193 187 187 208 214 222 226 226 228 229 229 232 238 246 251 251 248 246 253 263 257 243 236 238 240 243 244 247 258 265 256 246 242 239 237 239 240 240 240 240 238 237 237 236 235 234 234 233 233 233 232 232 234 235 237
171 162 218 226 231 250 262 244 199 219 228 229 227 218 216 203 189 220 236 236 239 230 233 246 255 259 268 48 21 236 173 180 180 185 202 214 221 226 227 228 230 233 240 247 250 253 254 252 253 260 267 263 250 241 242 244 245 249 255 260 265 263 255 247 241 239 239 239 239 238 237 236 236 236 236 235 234 233 232 232 231 231 232 234 235 237
132 120 218 244 258 280 286 296 23 357 307 266 260 230 217 217 215 228 233 240 245 221 225 247 250 258 274 74 208 226 167 167 182 186 195 212 217 221 223 226 230 236 243 248 251 252 254 255 259 263 265 266 258 248 245 246 246 253 261 262 264 267 264 252 243 238 237 237 237 235 234 234 235 236 236 236 234 233 232 231 230 230 231 233 234 236
286 196 205 242 266 277 275 270 287 352 36 256 256 245 238 240 244 254 258 260 254 235 235 249 252 261 277 205 196 209 188 191 208 209 216 224 223 224 230 236 239 240 241 244 248 250 249 252 259 262 263 265 265 258 248 243 246 254 262 265 265 268 265 253 243 238 235 235 235 234 233 234 234 236 236 236 234 232 231 230 229 229 230 231 233 235
316 279 205 225 241 241 244 251 256 285 8 255 260 249 246 241 238 249 256 246 247 240 238 248 257 265 275 273 258 250 244 246 253 248 241 240 237 234 237 243 243 241 239 240 245 247 249 253 257 259 260 262 267 263 250 243 247 255 262 266 266 265 262 253 244 238 235 235 235 234 234 234 234 236 236 235 234 232 230 229 228 228 228 229 231 234
35 291 271 247 250 249 249 269 292 296 278 272 269 253 250 250 243 246 250 244 252 255 247 248 258 265 270 273 271 267 266 267 270 271 268 263 256 245 240 243 244 243 244 244 247 250 251 254 255 256 258 262 267 264 254 250 254 258 263 266 265 262 259 254 246 240 236 235 235 235 234 235 235 236 235 235 233 231 230 228 227 227 227 228 229 232
109 241 259 266 265 261 260 267 274 277 269 264 265 261 263 265 256 253 252 249 253 258 254 252 259 263 261 261 267 271 273 274 272 272 274 273 268 255 243 242 242 243 246 248 250 253 253 254 254 254 256 260 265 264 259 258 261 262 263 263 262 260 258 254 248 242 238 236 235 235 236 236 235 235 234 234 232 230 228 226 226 226 226 226 228 231
158 231 234 243 250 248 248 251 252 256 256 252 252 253 256 257 253 250 250 247 245 249 259 260 257 259 259 257 263 270 273 277 278 277 276 275 273 266 252 246 248 247 246 250 254 253 253 254 254 254 256 259 262 262 262 263 263 263 263 261 259 259 256 253 248 242 238 237 237 237 237 235 234 233 232 232 230 228 226 225 224 224 224 225 227 231
160 232 226 229 243 240 236 239 238 241 247 248 247 244 246 251 251 248 247 246 244 246 253 255 253 256 260 261 263 266 270 275 279 279 277 274 272 270 261 256 262 261 253 258 265 262 257 255 255 255 256 258 260 261 262 262 262 262 263 261 259 258 254 251 247 243 241 240 239 238 236 234 233 232 230 229 228 226 224 223 222 222 222 223 226 230
186 213 207 217 243 239 234 237 235 235 240 244 248 246 244 248 249 247 247 247 245 246 246 248 253 257 261 261 261 265 269 272 273 274 273 270 270 269 266 265 270 272 267 266 267 267 263 260 258 258 258 259 261 261 260 259 260 260 261 260 259 257 255 251 248 245 243 241 239 236 234 232 231 229 228 227 226 224 222 221 221 221 221 222 225 230
198 215 204 212 241 235 230 235 236 235 236 238 245 249 244 242 241 240 241 241 241 244 246 247 250 251 252 254 258 263 264 264 264 265 267 269 270 270 270 271 274 276 275 271 267 265 264 263 261 261 262 263 264 263 261 259 259 259 259 259 258 256 254 250 247 245 242 239 237 234 232 231 229 228 227 226 225 223 221 220 220 220 220 220 224 230
189 210 212 214 241 242 231 234 236 235 236 232 231 234 236 237 239 241 245 245 243 242 244 246 244 243 246 249 255 259 259 258 257 257 261 270 274 275 275 273 272 274 276 275 271 267 265 264 264 266 267 268 267 265 264 262 260 260 260 260 259 255 251 249 246 243 240 236 234 233 231 230 228 227 227 225 224 222 220 219 219 219 219 220 223 229
193 212 223 218 241 247 236 239 242 233 231 227 217 222 230 235 237 238 239 241 242 241 241 244 247 250 251 247 246 250 255 256 256 256 261 270 275 277 278 275 273 273 274 274 273 271 271 270 271 272 274 273 270 265 263 260 259 261 261 258 255 252 249 247 244 241 237 235 234 232 231 230 229 228 226 225 223 221 219 219 219 217 217 219 224 229
205 214 226 223 238 249 239 238 243 233 227 229 223 218 226 235 239 242 244 244 246 249 248 248 249 249 250 249 248 249 252 256 260 265 273 273 269 269 272 273 273 272 271 272 274 276 279 280 279 279 278 274 270 265 259 256 254 254 253 251 250 248 247 245 242 239 238 236 235 233 231 230 229 228 227 225 222 220 219 218 216 215 216 220 225 230
220 217 219 223 229 241 233 219 235 255 261 195 211 209 220 235 240 247 253 248 244 246 249 250 252 251 250 250 250 251 254 259 267 275 276 271 267 264 262 262 267 270 271 273 275 279 285 290 289 286 282 277 270 262 255 252 249 246 246 246 245 245 244 242 240 239 238 236 235 233 233 231 230 228 226 224 221 218 217 215 214 214 216 220 224 228
223 225 226 228 218 222 236 231 240 264 268 206 198 198 212 228 229 236 248 244 236 240 248 254 258 256 252 250 250 255 261 268 278 276 269 268 268 266 261 258 262 268 272 275 276 280 291 299 298 291 285 278 269 262 257 253 246 242 240 240 240 239 239 238 239 239 238 237 236 235 234 232 230 229 226 223 220 217 215 213 212 214 216 219 223 227
218 221 220 225 215 215 238 244 237 252 248 222 217 215 218 230 232 235 250 251 229 227 238 243 248 249 249 252 254 259 266 268 265 265 265 266 268 267 264 262 262 264 268 272 274 278 292 305 302 292 283 276 270 266 262 253 246 241 239 238 237 236 235 236 239 240 239 239 239 237 235 233 231 229 226 223 219 216 213 212 212 214 216 219 223 227
221 222 222 231 225 214 234 244 230 245 248 216 221 224 227 238 241 246 263 261 214 205 227 237 245 249 251 258 256 250 253 255 247 254 260 263 267 269 268 267 266 265 267 268 267 272 291 302 298 289 282 276 270 267 263 258 251 244 241 240 238 236 236 240 243 244 243 242 240 237 234 232 231 229 227 222 218 214 212 212 212 213 215 218 221 227
225 224 221 230 228 221 235 243 235 251 253 202 212 222 230 239 245 250 262 257 182 199 222 231 240 248 251 256 257 245 235 242 245 252 260 265 270 273 273 274 274 271 269 266 264 272 288 295 294 289 283 279 274 268 265 263 256 249 246 244 241 241 246 251 250 247 244 241 238 236 233 231 229 227 224 221 216 213 212 212 212 212 214 217 221 227
232 225 219 228 229 223 229 240 248 252 231 185 200 216 227 239 242 234 253 283 268 230 243 249 253 268 277 277 283 290 282 282 279 273 273 276 277 277 276 275 274 274 269 266 269 277 283 287 291 288 283 282 280 273 268 265 259 254 252 249 249 252 256 256 250 247 245 240 237 234 231 229 226 224 220 217 214 212 210 210 211 212 214 218 224 228
232 223 224 227 236 237 233 244 257 249 221 167 231 232 232 241 244 252 308 353 6 359 356 359 353 348 348 344 345 345 340 339 338 327 318 311 302 295 290 283 279 277 273 271 275 279 279 281 287 285 280 278 280 279 275 268 261 258 254 253 260 264 260 253 249 247 244 239 235 232 229 226 223 219 216 213 211 211 210 208 209 211 215 219 224 227
256 259 246 212 221 245 234 235 250 243 7 3 327 273 282 299 306 335 351 3 17 24 17 9 9 8 2 353 346 343 345 349 351 350 348 344 338 333 327 321 314 305 297 294 292 289 286 284 288 290 284 276 273 276 276 269 263 260 256 260 269 266 256 251 250 247 242 238 233 230 226 223 219 215 212 210 209 209 209 208 208 210 215 219 222 224
289 288 278 255 309 271 231 251 287 196 1 1 7 12 313 308 333 360 358 356 16 22 13 359 353 353 352 347 341 339 339 341 341 342 341 339 338 337 334 334 333 328 323 318 310 301 295 292 294 296 289 279 274 274 275 273 269 266 264 266 267 263 256 253 249 244 240 235 231 227 223 220 216 212 209 207 207 207 206 206 208 210 214 218 220 222
308 327 283 274 311 332 277 288 306 302 312 328 341 334 313 310 334 360 1 4 11 7 0 350 339 336 336 335 331 328 326 326 327 326 325 325 325 323 322 323 322 321 320 318 312 305 300 299 299 297 290 286 281 278 277 275 271 271 272 270 266 265 265 259 251 244 238 232 227 223 219 215 212 209 206 205 206 206 205 205 207 211 214 217 219 221
323 338 318 285 306 315 292 271 283 315 318 316 319 319 313 317 340 351 353 355 347 339 336 332 325 321 320 319 319 317 315 315 315 314 313 313 312 311 311 310 310 310 311 311 309 306 302 299 297 293 290 288 285 282 280 276 273 276 277 269 262 264 267 262 252 244 237 229 224 220 216 211 207 205 204 204 205 206 206 207 209 212 214 217 219 220
326 330 327 316 303 300 293 283 297 309 306 304 308 310 309 327 337 336 334 330 325 321 319 317 314 312 310 309 308 306 305 307 307 306 307 307 306 306 305 303 303 303 303 303 304 302 299 295 291 288 288 287 285 284 282 278 276 276 273 264 258 260 263 259 251 242 235 228 222 217 213 209 205 202 201 202 202 202 203 206 210 212 214 216 217 218
308 313 314 305 292 286 284 288 294 295 292 293 297 304 318 324 321 317 316 317 317 315 314 313 310 307 304 305 304 301 299 300 300 300 302 303 303 303 302 301 301 301 300 301 301 300 297 293 290 289 287 287 287 285 282 279 278 275 269 263 260 260 260 257 250 242 235 228 222 216 211 207 205 202 200 200 201 201 202 205 208 211 214 217 219 220
286 294 296 294 295 291 285 289 297 297 298 300 301 308 316 316 313 313 314 315 314 313 314 313 311 308 306 306 306 302 297 296 298 298 299 300 301 302 301 301 301 300 300 301 301 300 298 296 295 293 291 291 291 287 284 282 279 275 270 266 262 259 258 254 248 240 233 227 220 215 210 206 204 203 201 199 199 200 204 208 210 212 213 213 214 216
271 274 280 286 292 290 294 318 329 319 307 305 308 313 316 315 315 317 317 318 320 322 324 325 325 323 320 317 316 313 307 305 307 307 305 304 303 303 303 303 302 301 300 300 299 298 296 294 294 293 291 291 289 286 284 283 280 275 271 266 262 259 256 252 245 237 230 224 219 214 209 204 202 202 201 200 198 198 200 203 206 208 209 209 210 210
263 275 284 285 287 289 295 305 307 301 294 298 305 310 314 316 322 328 327 327 329 329 330 330 328 325 322 319 318 316 314 312 313 312 310 308 307 305 305 304 303 302 301 300 299 297 294 293 292 291 290 290 289 286 285 282 279 275 271 267 263 258 254 250 243 235 228 223 218 214 209 204 201 199 199 199 199 200 199 197 195 196 199 203 206 206